TimeAKST,TemperatureF,Dew PointF,Humidity,Sea Level PressureIn,VisibilityMPH,Wind Direction,Wind SpeedMPH,Gust SpeedMPH,PrecipitationIn,Events,Conditions,WindDirDegrees,DateUTC
12:06 AM,-7.6,-13.0,77,29.89,10.0,Variable,1.2,-,N/A,Snow,Light Snow,0,2012-12-11 09:06:00
12:26 AM,-7.6,-13.0,77,29.90,10.0,Variable,2.3,-,N/A,,Mostly Cloudy,0,2012-12-11 09:26:00
12:46 AM,-5.8,-11.2,77,29.90,10.0,WSW,3.5,-,N/A,Snow,Light Snow Showers,240,2012-12-11 09:46:00
12:55 AM,-6.2,-11.0,79,29.90,10.0,ENE,2.3,-,N/A,Snow,Light Snow Showers,60,2012-12-11 09:55:00
1:55 AM,-6.0,-10.3,82,29.91,4.0,ESE,2.3,-,N/A,Snow,Light Snow,110,2012-12-11 10:55:00
2:46 AM,-4.0,-9.4,78,29.92,1.8,Variable,1.2,-,N/A,Snow,Light Snow,0,2012-12-11 11:46:00
3:06 AM,-4.0,-7.6,85,29.92,5.0,Variable,1.2,-,N/A,Snow,Light Snow,0,2012-12-11 12:06:00
3:26 AM,-4.0,-7.6,85,29.92,2.0,Variable,2.3,-,N/A,Snow,Light Snow,0,2012-12-11 12:26:00
3:46 AM,1.4,-4.0,78,29.91,6.0,Variable,3.5,-,N/A,Snow,Light Snow,0,2012-12-11 12:46:00
3:55 AM,1.0,-3.3,82,29.91,5.0,SW,2.3,-,N/A,Snow,Light Snow,220,2012-12-11 12:55:00
4:06 AM,1.4,-2.2,85,29.90,3.0,ESE,1.2,-,N/A,Snow,Light Snow,110,2012-12-11 13:06:00
4:26 AM,3.2,-2.2,78,29.90,9.0,Variable,4.6,-,N/A,Snow,Light Snow,0,2012-12-11 13:26:00
4:55 AM,3.7,-1.8,78,29.91,6.0,Variable,6.9,-,N/A,Snow,Light Snow,0,2012-12-11 13:55:00
5:46 AM,3.2,-2.2,78,29.91,6.0,WNW,10.4,-,N/A,Snow,Light Snow,290,2012-12-11 14:46:00
5:55 AM,3.0,-2.6,78,29.91,6.0,West,11.5,18.4,N/A,Snow,Light Snow,280,2012-12-11 14:55:00
6:06 AM,3.2,-2.2,78,29.92,5.0,West,13.8,19.6,N/A,Snow,Light Snow,280,2012-12-11 15:06:00
6:55 AM,3.2,-2.7,76,29.93,4.0,North,11.5,18.4,N/A,Snow,Light Snow,350,2012-12-11 15:55:00
7:55 AM,4.3,-1.7,76,29.94,4.0,West,6.9,-,N/A,Snow,Light Snow,260,2012-12-11 16:55:00
8:46 AM,5.0,-2.2,72,29.91,2.0,North,16.1,33.4,N/A,Snow,Light Snow,360,2012-12-11 17:46:00
8:55 AM,4.5,-1.8,75,29.91,2.5,North,15.0,21.9,N/A,Snow,Light Snow,360,2012-12-11 17:55:00
9:06 AM,5.0,-2.2,72,29.91,4.0,North,17.3,26.5,N/A,Snow,Light Snow,360,2012-12-11 18:06:00
9:26 AM,5.0,-2.2,72,29.92,4.0,NNW,11.5,23.0,N/A,Snow,Light Snow,330,2012-12-11 18:26:00
9:46 AM,5.0,-2.2,72,29.92,6.0,Variable,5.8,-,N/A,Snow,Light Snow,0,2012-12-11 18:46:00
9:55 AM,4.5,-2.6,73,29.93,6.0,North,8.1,17.3,N/A,Snow,Light Snow,10,2012-12-11 18:55:00
10:26 AM,1.4,-2.2,85,29.94,7.0,SW,11.5,13.8,N/A,Snow,Light Snow,220,2012-12-11 19:26:00
10:46 AM,3.2,-2.2,78,29.94,8.0,West,5.8,-,N/A,Snow,Light Snow,270,2012-12-11 19:46:00
10:55 AM,2.3,-2.9,79,29.94,8.0,West,3.5,-,N/A,Snow,Light Snow,260,2012-12-11 19:55:00
11:46 AM,3.2,-2.2,78,29.94,10.0,Variable,2.3,-,N/A,Snow,Light Snow Showers,0,2012-12-11 20:46:00
11:55 AM,3.4,-3.1,74,29.93,10.0,WSW,1.2,-,N/A,Snow,Light Snow Showers,240,2012-12-11 20:55:00
12:06 PM,3.2,-2.2,78,29.94,10.0,Variable,1.2,-,N/A,Snow,Light Snow Showers,0,2012-12-11 21:06:00
12:46 PM,3.2,-2.2,78,29.95,1.2,WSW,3.5,-,N/A,Snow,Light Snow,240,2012-12-11 21:46:00
12:55 PM,2.5,-1.8,82,29.95,1.2,Variable,1.2,-,N/A,Snow,Light Snow,0,2012-12-11 21:55:00
1:46 PM,3.2,-2.2,78,29.92,2.0,WSW,3.5,-,N/A,Snow,Light Snow,250,2012-12-11 22:46:00
1:55 PM,1.9,-2.2,83,29.92,1.8,ESE,3.5,-,N/A,Snow,Light Snow,120,2012-12-11 22:55:00
2:06 PM,1.4,-2.2,85,29.92,3.0,SW,3.5,-,N/A,Snow,Light Snow,220,2012-12-11 23:06:00
2:26 PM,1.4,-2.2,85,29.92,10.0,SW,8.1,-,N/A,Snow,Light Snow,230,2012-12-11 23:26:00
2:47 PM,1.4,-2.2,85,29.91,8.0,WSW,6.9,-,N/A,Snow,Light Snow,240,2012-12-11 23:47:00
2:55 PM,0.3,-3.3,85,29.91,10.0,Variable,4.6,-,N/A,Snow,Light Snow,0,2012-12-11 23:55:00
3:07 PM,-0.4,-4.0,85,29.91,10.0,SE,3.5,-,N/A,Snow,Light Snow,140,2012-12-12 00:07:00
3:47 PM,-2.2,-5.8,85,29.88,10.0,NE,1.2,-,N/A,,Mostly Cloudy,40,2012-12-12 00:47:00
3:55 PM,-3.8,-7.4,85,29.87,10.0,Variable,1.2,-,N/A,,Mostly Cloudy,0,2012-12-12 00:55:00
4:07 PM,-4.0,-7.6,85,29.87,10.0,ENE,2.3,-,N/A,Snow,Light Snow Showers,70,2012-12-12 01:07:00
4:27 PM,-2.2,-5.8,85,29.86,10.0,SW,2.3,-,N/A,,Mostly Cloudy,220,2012-12-12 01:27:00
4:55 PM,-3.8,-7.4,85,29.86,10.0,NNW,2.3,-,N/A,,Mostly Cloudy,340,2012-12-12 01:55:00
5:07 PM,-4.0,-5.8,92,29.85,10.0,WNW,3.5,-,N/A,Snow,Light Snow,290,2012-12-12 02:07:00
5:55 PM,-3.5,-7.8,82,29.83,10.0,NE,1.2,-,N/A,Snow,Light Snow Showers,40,2012-12-12 02:55:00
6:07 PM,-4.0,-7.6,85,29.82,10.0,North,2.3,-,N/A,,Overcast,350,2012-12-12 03:07:00
6:27 PM,-2.2,-5.8,85,29.82,10.0,Variable,1.2,-,N/A,,Overcast,0,2012-12-12 03:27:00
6:47 PM,-2.2,-4.0,92,29.80,10.0,WNW,2.3,-,N/A,Snow,Light Snow Showers,290,2012-12-12 03:47:00
6:55 PM,-2.2,-6.2,83,29.79,10.0,North,2.3,-,N/A,Snow,Light Snow Showers,350,2012-12-12 03:55:00
7:07 PM,-2.2,-5.8,85,29.78,10.0,South,1.2,-,N/A,,Overcast,180,2012-12-12 04:07:00
7:47 PM,-2.2,-5.8,85,29.75,10.0,SE,2.3,-,N/A,Snow,Light Snow Showers,130,2012-12-12 04:47:00
7:55 PM,-1.8,-4.9,87,29.74,10.0,SE,2.3,-,N/A,Snow,Light Snow Showers,130,2012-12-12 04:55:00
8:47 PM,-2.2,-4.0,92,29.72,10.0,SSE,2.3,-,N/A,Snow,Light Snow Showers,160,2012-12-12 05:47:00
8:55 PM,-1.7,-4.9,86,29.71,10.0,South,3.5,-,N/A,Snow,Light Snow,190,2012-12-12 05:55:00
9:07 PM,-2.2,-5.8,85,29.70,10.0,South,2.3,-,N/A,Snow,Light Snow,180,2012-12-12 06:07:00
9:55 PM,0.1,-4.2,82,29.67,10.0,SSW,4.6,-,N/A,Snow,Light Snow,210,2012-12-12 06:55:00
10:07 PM,-0.4,-2.2,92,29.66,10.0,Variable,2.3,-,N/A,Snow,Light Snow,0,2012-12-12 07:07:00
10:55 PM,-0.8,-3.6,88,29.62,10.0,SSE,6.9,-,N/A,Snow,Light Snow,150,2012-12-12 07:55:00
11:47 PM,-0.4,-4.0,85,29.59,10.0,Variable,2.3,-,N/A,Snow,Light Snow Showers,0,2012-12-12 08:47:00
11:55 PM,0.1,-3.5,85,29.58,10.0,SW,2.3,-,N/A,Snow,Light Snow Showers,230,2012-12-12 08:55:00